WetterOnline ( http://www.wetteronline.de )

Wetter aktuell Altusried

Aktuelles Wetter: Kempten (705m)

6-stündlich | Neueste Meldungen
Ortszeit Temperatur Wetter
Sa, 19.01. 13:00 -3.1° C wolkig
Sa, 19.01. 7:00 -13.6° C bewölkt
Sa, 19.01. 1:00 -7.8° C bedeckt
Fr, 18.01. 19:00 -5.8° C bedeckt
Fr, 18.01. 13:00 0.2° C leicht bewölkt
Fr, 18.01. 7:00 -2.3° C bedeckt
Fr, 18.01. 1:00 0.9° C leicht bewölkt
Do, 17.01. 19:00 1.9° C leichter Schneeregen
Ortszeit Temperatur Wetter
Sa, 19.01. 15:00 -2.1° C wolkig
Sa, 19.01. 14:50 -2.1° C bedeckt
Sa, 19.01. 14:40 -2.3° C bedeckt
Sa, 19.01. 14:30 -1.9° C bedeckt
Sa, 19.01. 14:20 -1.9° C bedeckt
Sa, 19.01. 14:10 -1.3° C bedeckt
Sa, 19.01. 14:00 -2.6° C wolkig
Sa, 19.01. 13:30 -2.6° C wolkig
Sa, 19.01. 13:00 -3.1° C wolkig
Sa, 19.01. 12:30 -4.3° C wolkig
Sa, 19.01. 12:00 -5.0° C wolkig
Ortszeit Relative Feuchte Sichtweite
Sa, 19.01. 13:00 52% 6 km
Sa, 19.01. 7:00 86% 9 km
Sa, 19.01. 1:00 91% 14 km
Fr, 18.01. 19:00 79% 22 km
Fr, 18.01. 13:00 50% 2.9 km
Fr, 18.01. 7:00 74% 27 km
Fr, 18.01. 1:00 75% 60 km
Do, 17.01. 19:00 86% 17 km
Ortszeit Relative Feuchte Sichtweite
Sa, 19.01. 15:00 54% 7 km
Sa, 19.01. 14:50 54% -
Sa, 19.01. 14:40 53% -
Sa, 19.01. 14:30 50% 3.9 km
Sa, 19.01. 14:20 50% -
Sa, 19.01. 14:10 48% -
Sa, 19.01. 14:00 52% 3.6 km
Sa, 19.01. 13:30 53% 1.8 km
Sa, 19.01. 13:00 52% 6 km
Sa, 19.01. 12:30 60% 6 km
Sa, 19.01. 12:00 63% 13 km
Ortszeit Niederschlagsmenge Niederschlagsart
Sa, 19.01. 13:00 0.0 l/m2 in 6 Std. -
Sa, 19.01. 7:00 0.0 l/m2 in 12 Std. -
Sa, 19.01. 1:00 0.0 l/m2 in 6 Std. -
Fr, 18.01. 19:00 0.0 l/m2 in 12 Std. -
Fr, 18.01. 13:00 0.0 l/m2 in 6 Std. -
Fr, 18.01. 7:00 2 l/m2 in 12 Std. Schnee, Niederschlag
Fr, 18.01. 1:00 0.5 l/m2 in 6 Std. Schnee, Regen
Do, 17.01. 19:00 1 l/m2 in 12 Std. Schnee, Regen
Ortszeit Niederschlagsmenge Niederschlagsart
Sa, 19.01. 15:00 0.0 l/m2 in 1 Std. -
Sa, 19.01. 14:50 keine Meldung -
Sa, 19.01. 14:40 keine Meldung -
Sa, 19.01. 14:30 0.0 l/m2 in 1 Std. -
Sa, 19.01. 14:20 keine Meldung -
Sa, 19.01. 14:10 keine Meldung -
Sa, 19.01. 14:00 0.0 l/m2 in 1 Std. -
Sa, 19.01. 13:30 0.0 l/m2 in 1 Std. -
Sa, 19.01. 13:00 0.0 l/m2 in 1 Std. -
Sa, 19.01. 12:30 0.0 l/m2 in 1 Std. -
Sa, 19.01. 12:00 0.0 l/m2 in 1 Std. -
Ortszeit Stärke Spitze Richtung
km/h Bft. km/h Grad Sektor
Sa, 19.01. 13:00 4 1 11 130° SO
Sa, 19.01. 7:00 9 2 13 110° O
Sa, 19.01. 1:00 0 0 18 - -
Fr, 18.01. 19:00 4 1 11 20° N
Fr, 18.01. 13:00 7 2 18 140° SO
Fr, 18.01. 7:00 7 2 32 280° W
Fr, 18.01. 1:00 15 3 44 240° SW
Do, 17.01. 19:00 11 2 47 220° SW
Ortszeit Stärke Spitze Richtung
km/h Bft. km/h Grad Sektor
Sa, 19.01. 15:00 4 1 7 360° N
Sa, 19.01. 14:50 4 1 - 360° N
Sa, 19.01. 14:40 4 1 - 10° N
Sa, 19.01. 14:30 4 1 7 110° O
Sa, 19.01. 14:20 4 1 - 110° O
Sa, 19.01. 14:10 4 1 - 140° SO
Sa, 19.01. 14:00 4 1 7 120° SO
Sa, 19.01. 13:30 4 1 7 130° SO
Sa, 19.01. 13:00 4 1 7 130° SO
Sa, 19.01. 12:30 4 1 7 170° S
Sa, 19.01. 12:00 4 1 11 170° S
Ortszeit Untergrenze Bedeckung Gattung
total tief tief mittel hoch
Sa, 19.01. 13:00 6600 m 8/8 8/8 - - -
Sa, 19.01. 7:00 3900 m 7/8 6/8 - - -
Sa, 19.01. 1:00 3900 m 8/8 8/8 - - -
Fr, 18.01. 19:00 5400 m 8/8 8/8 - - -
Fr, 18.01. 13:00 1500 m 3/8 3/8 - - -
Fr, 18.01. 7:00 810 m 8/8 8/8 - - -
Fr, 18.01. 1:00 750 m 5/8 3/8 - - -
Do, 17.01. 19:00 570 m 7/8 7/8 - - -
Ortszeit Bedeckungsgrad in Achtel und Wolkenuntergrenze
Sa, 19.01. 15:00 8(4500m) 8(7200m)
Sa, 19.01. 14:50 8(4500m) 8(7200m)
Sa, 19.01. 14:40 8(4500m) 8(6900m)
Sa, 19.01. 14:30 8(4500m) 8(6900m)
Sa, 19.01. 14:20 8(4500m) 8(6900m)
Sa, 19.01. 14:10 8(4500m)
Sa, 19.01. 14:00 7(4500m)
Sa, 19.01. 13:30 6(6600m) 5(6600m)
Sa, 19.01. 13:00 8(6600m)
Sa, 19.01. 12:30 6(6900m)
Sa, 19.01. 12:00 3(4500m) 7(7200m) 8(8100m)
Ortszeit Luftdruck NN (hPa) Tendenz (hPa in 3 Std.)
Sa, 19.01. 13:00 1017 - 0,9
Sa, 19.01. 7:00 1022 - 0,6
Sa, 19.01. 1:00 1020 - 1,0
Fr, 18.01. 19:00 1022 - 0,5
Fr, 18.01. 13:00 1020 - 0,7
Fr, 18.01. 7:00 1020 + 2,2
Fr, 18.01. 1:00 1015 + 0,9
Do, 17.01. 19:00 1012 + 1,4
Ortszeit Luftdruck NN (hPa) Tendenz (hPa in 3 Std.)
Sa, 19.01. 15:00 1016 - 1,5
Sa, 19.01. 14:50 1016 keine Meldung
Sa, 19.01. 14:40 1016 keine Meldung
Sa, 19.01. 14:30 1016 - 1,7
Sa, 19.01. 14:20 1016 keine Meldung
Sa, 19.01. 14:10 1016 keine Meldung
Sa, 19.01. 14:00 1017 - 1,6
Sa, 19.01. 13:30 1017 - 1,3
Sa, 19.01. 13:00 1017 - 0,9
Sa, 19.01. 12:30 1018 - 0,5
Sa, 19.01. 12:00 1019 - 0,2
Ortszeit Schneehöhe (cm)
Sa, 19.01. 13:00 24
Sa, 19.01. 7:00 24
Sa, 19.01. 1:00 24
Fr, 18.01. 19:00 24
Fr, 18.01. 13:00 25
Fr, 18.01. 7:00 26
Fr, 18.01. 1:00 23
Do, 17.01. 19:00 23
Ortszeit Schneehöhe (cm)
Sa, 19.01. 15:00 24
Sa, 19.01. 14:50 24
Sa, 19.01. 14:40 24
Sa, 19.01. 14:30 24
Sa, 19.01. 14:20 24
Sa, 19.01. 14:10 24
Sa, 19.01. 14:00 24
Sa, 19.01. 13:30 24
Sa, 19.01. 13:00 24
Sa, 19.01. 12:30 24
Sa, 19.01. 12:00 24
Link zu dieser Seite / Seite empfehlen

Das Wetter in ...